TimeCST,TemperatureF,Dew PointF,Humidity,Sea Level PressureIn,VisibilityMPH,Wind Direction,Wind SpeedMPH,Gust SpeedMPH,PrecipitationIn,Events,Conditions,WindDirDegrees,DateUTC
12:53 AM,14.0,5.0,67,30.44,10.0,West,3.5,-,N/A,,Clear,260,2012-11-27 06:53:00
1:53 AM,17.1,6.1,62,30.43,10.0,Calm,Calm,-,N/A,,Clear,0,2012-11-27 07:53:00
2:53 AM,14.0,7.0,74,30.43,10.0,South,5.8,-,N/A,,Clear,170,2012-11-27 08:53:00
3:53 AM,15.1,7.0,70,30.42,10.0,South,8.1,-,N/A,,Clear,180,2012-11-27 09:53:00
4:53 AM,15.1,8.1,74,30.41,10.0,South,8.1,-,N/A,,Clear,180,2012-11-27 10:53:00
5:53 AM,15.1,7.0,70,30.41,10.0,South,8.1,-,N/A,,Clear,180,2012-11-27 11:53:00
6:53 AM,15.1,8.1,74,30.40,10.0,South,8.1,-,N/A,,Clear,180,2012-11-27 12:53:00
7:53 AM,17.1,8.1,68,30.39,10.0,South,5.8,-,N/A,,Clear,180,2012-11-27 13:53:00
8:53 AM,19.9,10.0,65,30.39,10.0,South,6.9,-,N/A,,Clear,180,2012-11-27 14:53:00
9:53 AM,23.0,12.0,63,30.38,10.0,South,6.9,-,N/A,,Clear,190,2012-11-27 15:53:00
10:53 AM,26.1,12.9,58,30.35,10.0,South,10.4,-,N/A,,Clear,180,2012-11-27 16:53:00
11:53 AM,30.0,12.9,49,30.30,10.0,South,12.7,-,N/A,,Clear,170,2012-11-27 17:53:00
12:53 PM,30.9,15.1,52,30.27,10.0,South,10.4,-,N/A,,Clear,180,2012-11-27 18:53:00
1:53 PM,32.0,12.0,44,30.25,10.0,SSW,13.8,-,N/A,,Overcast,200,2012-11-27 19:53:00
2:53 PM,33.1,12.0,42,30.23,10.0,South,10.4,-,N/A,,Overcast,190,2012-11-27 20:53:00
3:53 PM,32.0,12.0,44,30.23,10.0,SSW,10.4,-,N/A,,Overcast,210,2012-11-27 21:53:00
4:53 PM,32.0,12.9,45,30.22,10.0,South,4.6,-,N/A,,Overcast,170,2012-11-27 22:53:00
5:53 PM,32.0,12.9,45,30.22,10.0,South,9.2,-,N/A,,Overcast,170,2012-11-27 23:53:00
6:53 PM,32.0,12.9,45,30.23,10.0,South,9.2,-,N/A,,Overcast,190,2012-11-28 00:53:00
7:53 PM,32.0,14.0,48,30.24,10.0,SW,5.8,-,N/A,,Overcast,220,2012-11-28 01:53:00
8:53 PM,32.0,14.0,48,30.23,10.0,Calm,Calm,-,N/A,,Overcast,0,2012-11-28 02:53:00
9:53 PM,30.0,14.0,51,30.24,10.0,SW,3.5,-,N/A,,Clear,220,2012-11-28 03:53:00
10:53 PM,26.1,14.0,60,30.25,10.0,SW,3.5,-,N/A,,Clear,220,2012-11-28 04:53:00
11:53 PM,25.0,15.1,66,30.26,10.0,Calm,Calm,-,N/A,,Clear,0,2012-11-28 05:53:00